Weather History for KNCA - November, 2012

Change the Weather History Date:

Tuesday, November 27, 2012

  Actual Average Record
Temperature  
Mean Temperature 50 °F -  
Max Temperature 64 °F 61 °F 75 °F (2001)
Min Temperature 36 °F 39 °F 26 °F (2008)
Degree Days  
Heating Degree Days 15    
Moisture  
Dew Point 40 °F    
Average Humidity 72    
Maximum Humidity 89    
Minimum Humidity 34    
Precipitation  
Precipitation 0.04 in - - ()
Sea Level Pressure  
Sea Level Pressure 30.18 in    
Wind  
Wind Speed 2 mph (West)    
Max Wind Speed 14 mph    
Max Gust Speed -    
Visibility 10 miles    
Events Rain    
Averages and records for this station are not official NWS values.
T = Trace of Precipitation, MM = Missing Value Source: NWS Daily Summary

Daily Weather History Graph

Daily Weather History Graph

Search for Another Location

Airport or City:

Trip Planner

Search our weather history database for the weather conditions in past years. The results will help you decide how hot, cold, wet, or windy it might be!

Date:

Astronomy

Nov. 27, 2012 Rise Set
Actual Time 6:55 AM EST 4:59 PM EST
Civil Twilight 6:28 AM EST 5:26 PM EST
Nautical Twilight 5:57 AM EST 5:57 PM EST
Astronomical Twilight 5:26 AM EST 6:28 PM EST
Moon 4:28 PM EST (11/27) 5:59 AM EST (11/27)
Length of Visible Light 10h 58m
Length of Day
10h 03m
Waxing Gibbous, 99% of the Moon is Illuminated
Nov 27
Waxing Gibbous
Nov 28
Full
Dec 6
Last Quarter
Dec 13
New
Dec 20
First Quarter

Hourly Weather History & Observations

Time (EST) Temp. Windchill Dew Point Humidity Pressure Visibility Wind Dir Wind Speed Gust Speed Precip Events Conditions
12:56 AM 39.0 °F - 35.1 °F 86% 30.22 in 10.0 mi Calm Calm - N/A   Clear
1:56 AM 37.9 °F - 34.0 °F 86% 30.21 in 10.0 mi Calm Calm - N/A   Clear
2:56 AM 37.0 °F - 34.0 °F 89% 30.21 in 10.0 mi Calm Calm - N/A   Clear
3:56 AM 37.0 °F - 33.1 °F 86% 30.20 in 10.0 mi Calm Calm - N/A   Clear
4:56 AM 36.0 °F - 33.1 °F 89% 30.20 in 10.0 mi Calm Calm - N/A   Clear
5:56 AM 41.0 °F 39.0 °F 37.0 °F 86% 30.20 in 10.0 mi SE 3.5 mph - N/A   Clear
6:56 AM 42.1 °F - 39.0 °F 89% 30.21 in 10.0 mi Calm Calm - N/A   Clear
7:56 AM 46.0 °F - 41.0 °F 83% 30.22 in 10.0 mi Calm Calm - N/A   Partly Cloudy
8:56 AM 50.0 °F - 41.0 °F 71% 30.23 in 10.0 mi Calm Calm - N/A   Scattered Clouds
9:56 AM 57.9 °F - 37.9 °F 47% 30.20 in 10.0 mi Calm Calm - N/A   Clear
10:56 AM 63.0 °F - 35.1 °F 35% 30.19 in 10.0 mi Calm Calm - N/A   Mostly Cloudy
11:56 AM 63.0 °F - 39.9 °F 43% 30.17 in 10.0 mi Variable 3.5 mph - N/A   Mostly Cloudy
12:56 PM 64.9 °F - 36.0 °F 34% 30.14 in 10.0 mi SW 6.9 mph - N/A   Mostly Cloudy
1:56 PM 63.0 °F - 36.0 °F 37% 30.14 in 10.0 mi West 5.8 mph - N/A   Overcast
2:56 PM 61.0 °F - 39.9 °F 46% 30.14 in 10.0 mi West 6.9 mph - 0.00 in Rain Light Rain
3:56 PM 60.1 °F - 37.0 °F 42% 30.13 in 10.0 mi WNW 8.1 mph - 0.00 in   Overcast
4:56 PM 55.0 °F - 39.9 °F 57% 30.14 in 9.0 mi West 5.8 mph - 0.00 in   Overcast
5:56 PM 53.1 °F - 44.1 °F 71% 30.17 in 9.0 mi Calm Calm - 0.00 in Rain Light Rain
6:56 PM 51.1 °F - 46.9 °F 86% 30.17 in 10.0 mi Calm Calm - 0.01 in   Overcast
7:56 PM 51.1 °F - 46.0 °F 83% 30.19 in 10.0 mi SSW 3.5 mph - 0.01 in Rain Light Rain
8:40 PM 50.0 °F - 46.4 °F 87% 30.18 in 8.0 mi West 3.5 mph - 0.01 in Rain Light Rain
8:56 PM 51.1 °F - 46.9 °F 86% 30.18 in 10.0 mi SSE 3.5 mph - 0.02 in   Overcast
9:07 PM 51.8 °F - 46.4 °F 82% 30.17 in 10.0 mi SSW 3.5 mph - N/A   Overcast
9:56 PM 51.1 °F - 46.9 °F 86% 30.18 in 10.0 mi NNW 6.9 mph - N/A   Overcast
10:49 PM 51.8 °F - 46.4 °F 82% 30.18 in 10.0 mi WNW 4.6 mph - N/A   Overcast
10:56 PM 51.1 °F - 46.9 °F 86% 30.19 in 10.0 mi WNW 4.6 mph - N/A   Overcast
11:20 PM 50.0 °F - 44.6 °F 82% 30.18 in 10.0 mi North 13.8 mph - N/A   Overcast
11:56 PM 48.0 °F - 43.0 °F 83% 30.20 in 6.0 mi North 12.7 mph - 0.00 in Rain Light Rain